M I D A S
Marine Information and Data Acquisition System
Tripno 1491 of the Zeeleeuw from 2008-05-23 06:41:36 to 2008-05-23 13:12:48
Back to CruiseResearch ActivitiesStationsMapUnderway DataData graphs

EquipmentUnitsComments
TimeDGPSUTC
LatitudeDGPSDM.mWGS84
LongitudeDGPSDM.mWGS84
SpeedMeteo Stationm/sRelative wind speed
DirectionMeteo StationdegRelative wind direction
TemperatureMeteo Stationdeg CelciusAir temperature
PressureMeteo StationPaAtmospheric pressure
HumidityMeteo Station%Relative humidity
Missing or incorrect values are displayed as -999
Metereological data collected by the RV Zeeleeuw from 2008-05-23 06:42:27 to 2008-05-23 13:19:42
                                                                                    Next 1000 lines
Time Latitude Longitude Speed Direction Temperature Pressure Humidity
2008-05-23 06:42:37 51°13.623 2°56.048 -999 -999 -999 -999 -999
2008-05-23 06:42:43 51°13.623 2°56.048 -999 -999 -999 -999 -999
2008-05-23 06:42:47 51°13.623 2°56.048 -999 -999 -999 -999 -999
2008-05-23 06:42:52 51°13.623 2°56.048 -999 -999 -999 -999 -999
2008-05-23 06:42:57 51°13.623 2°56.047 -999 -999 -999 -999 -999
2008-05-23 06:43:02 51°13.622 2°56.047 -999 -999 -999 -999 -999
2008-05-23 06:43:07 51°13.622 2°56.047 -999 -999 -999 -999 -999
2008-05-23 06:43:12 51°13.622 2°56.047 -999 -999 -999 -999 -999
2008-05-23 06:43:17 51°13.622 2°56.047 -999 -999 -999 -999 -999
2008-05-23 06:43:22 51°13.622 2°56.046 -999 -999 -999 -999 -999
2008-05-23 06:43:27 51°13.622 2°56.045 -999 -999 -999 -999 -999
2008-05-23 06:43:32 51°13.623 2°56.043 -999 -999 -999 -999 -999
2008-05-23 06:43:38 51°13.624 2°56.039 -999 -999 -999 -999 -999
2008-05-23 06:43:43 51°13.625 2°56.034 -999 -999 -999 -999 -999
2008-05-23 06:43:47 51°13.626 2°56.03 -999 -999 -999 -999 -999
2008-05-23 06:43:52 51°13.627 2°56.024 -999 -999 -999 -999 -999
2008-05-23 06:43:57 51°13.629 2°56.018 -999 -999 -999 -999 -999
2008-05-23 06:44:02 51°13.63 2°56.011 -999 -999 -999 -999 -999
2008-05-23 06:44:07 51°13.632 2°56.004 -999 -999 -999 -999 -999
2008-05-23 06:44:12 51°13.633 2°55.996 -999 -999 -999 -999 -999
2008-05-23 06:44:18 51°13.635 2°55.987 -999 -999 -999 -999 -999
2008-05-23 06:44:22 51°13.637 2°55.981 -999 -999 -999 -999 -999
2008-05-23 06:44:28 51°13.639 2°55.971 -999 -999 -999 -999 -999
2008-05-23 06:44:32 51°13.641 2°55.964 -999 -999 -999 -999 -999
2008-05-23 06:44:37 51°13.643 2°55.955 -999 -999 -999 -999 -999
2008-05-23 06:44:42 51°13.645 2°55.946 -999 -999 -999 -999 -999
2008-05-23 06:44:47 51°13.648 2°55.938 -999 -999 -999 -999 -999
2008-05-23 06:44:53 51°13.651 2°55.927 -999 -999 -999 -999 -999
2008-05-23 06:44:57 51°13.653 2°55.92 -999 -999 -999 -999 -999
2008-05-23 06:45:02 51°13.656 2°55.911 -999 -999 -999 -999 -999
2008-05-23 06:45:07 51°13.659 2°55.902 -999 -999 -999 -999 -999
2008-05-23 06:45:12 51°13.663 2°55.893 -999 -999 -999 -999 -999
2008-05-23 06:45:17 51°13.666 2°55.884 -999 -999 -999 -999 -999
2008-05-23 06:45:23 51°13.671 2°55.873 -999 -999 -999 -999 -999
2008-05-23 06:45:27 51°13.674 2°55.865 -999 -999 -999 -999 -999
2008-05-23 06:45:33 51°13.678 2°55.854 -999 -999 -999 -999 -999
2008-05-23 06:45:37 51°13.681 2°55.847 -999 -999 -999 -999 -999
2008-05-23 06:45:42 51°13.685 2°55.837 -999 -999 -999 -999 -999
2008-05-23 06:45:48 51°13.69 2°55.826 -999 -999 -999 -999 -999
2008-05-23 06:45:52 51°13.694 2°55.819 -999 -999 -999 -999 -999
2008-05-23 06:45:57 51°13.698 2°55.809 -999 -999 -999 -999 -999
2008-05-23 06:46:02 51°13.703 2°55.8 -999 -999 -999 -999 -999
2008-05-23 06:46:07 51°13.708 2°55.791 -999 -999 -999 -999 -999
2008-05-23 06:46:12 51°13.713 2°55.783 -999 -999 -999 -999 -999
2008-05-23 06:46:17 51°13.718 2°55.775 -999 -999 -999 -999 -999
2008-05-23 06:46:22 51°13.723 2°55.767 -999 -999 -999 -999 -999
2008-05-23 06:46:27 51°13.728 2°55.759 -999 -999 -999 -999 -999
2008-05-23 06:46:33 51°13.735 2°55.75 -999 -999 -999 -999 -999
2008-05-23 06:46:37 51°13.739 2°55.744 -999 -999 -999 -999 -999
2008-05-23 06:46:42 51°13.744 2°55.737 -999 -999 -999 -999 -999
2008-05-23 06:46:47 51°13.75 2°55.73 -999 -999 -999 -999 -999
2008-05-23 06:46:52 51°13.756 2°55.723 -999 -999 -999 -999 -999
2008-05-23 06:46:57 51°13.761 2°55.717 -999 -999 -999 -999 -999
2008-05-23 06:47:02 51°13.767 2°55.71 -999 -999 -999 -999 -999
2008-05-23 06:47:07 51°13.773 2°55.703 -999 -999 -999 -999 -999
2008-05-23 06:47:12 51°13.779 2°55.695 -999 -999 -999 -999 -999
2008-05-23 06:47:17 51°13.784 2°55.689 -999 -999 -999 -999 -999
2008-05-23 06:47:22 51°13.79 2°55.682 -999 -999 -999 -999 -999
2008-05-23 06:47:27 51°13.796 2°55.676 -999 -999 -999 -999 -999
2008-05-23 06:47:32 51°13.802 2°55.669 -999 -999 -999 -999 -999
2008-05-23 06:47:37 51°13.808 2°55.663 -999 -999 -999 -999 -999
2008-05-23 06:47:42 51°13.815 2°55.657 -999 -999 -999 -999 -999
2008-05-23 06:47:47 51°13.821 2°55.652 -999 -999 -999 -999 -999
2008-05-23 06:47:52 51°13.828 2°55.647 -999 -999 -999 -999 -999
2008-05-23 06:47:57 51°13.835 2°55.643 -999 -999 -999 -999 -999
2008-05-23 06:48:02 51°13.842 2°55.64 -999 -999 -999 -999 -999
2008-05-23 06:48:07 51°13.849 2°55.637 -999 -999 -999 -999 -999
2008-05-23 06:48:12 51°13.856 2°55.635 -999 -999 -999 -999 -999
2008-05-23 06:48:17 51°13.863 2°55.633 -999 -999 -999 -999 -999
2008-05-23 06:48:22 51°13.87 2°55.633 -999 -999 -999 -999 -999
2008-05-23 06:48:27 51°13.876 2°55.633 -999 -999 -999 -999 -999
2008-05-23 06:48:32 51°13.883 2°55.634 -999 -999 -999 -999 -999
2008-05-23 06:48:37 51°13.89 2°55.635 -999 -999 -999 -999 -999
2008-05-23 06:48:42 51°13.897 2°55.637 -999 -999 -999 -999 -999
2008-05-23 06:48:48 51°13.904 2°55.64 -999 -999 -999 -999 -999
2008-05-23 06:48:52 51°13.909 2°55.642 -999 -999 -999 -999 -999
2008-05-23 06:48:57 51°13.915 2°55.645 -999 -999 -999 -999 -999
2008-05-23 06:49:02 51°13.92 2°55.648 -999 -999 -999 -999 -999
2008-05-23 06:49:07 51°13.925 2°55.651 -999 -999 -999 -999 -999
2008-05-23 06:49:12 51°13.929 2°55.654 -999 -999 -999 -999 -999
2008-05-23 06:49:17 51°13.932 2°55.656 -999 -999 -999 -999 -999
2008-05-23 06:49:22 51°13.934 2°55.656 -999 -999 -999 -999 -999
2008-05-23 06:49:27 51°13.934 2°55.656 -999 -999 -999 -999 -999
2008-05-23 06:49:32 51°13.934 2°55.653 -999 -999 -999 -999 -999
2008-05-23 06:49:37 51°13.934 2°55.649 -999 -999 -999 -999 -999
2008-05-23 06:49:42 51°13.933 2°55.643 -999 -999 -999 -999 -999
2008-05-23 06:49:47 51°13.933 2°55.636 -999 -999 -999 -999 -999
2008-05-23 06:49:52 51°13.934 2°55.628 -999 -999 -999 -999 -999
2008-05-23 06:49:57 51°13.936 2°55.62 -999 -999 -999 -999 -999
2008-05-23 06:50:02 51°13.938 2°55.611 -999 -999 -999 -999 -999
2008-05-23 06:50:07 51°13.942 2°55.601 -999 -999 -999 -999 -999
2008-05-23 06:50:11 51°13.946 2°55.593 -999 -999 -999 -999 -999
2008-05-23 06:50:17 51°13.953 2°55.581 -999 -999 -999 -999 -999
2008-05-23 06:50:22 51°13.959 2°55.572 -999 -999 -999 -999 -999
2008-05-23 06:50:27 51°13.966 2°55.563 -999 -999 -999 -999 -999
2008-05-23 06:50:32 51°13.974 2°55.555 -999 -999 -999 -999 -999
2008-05-23 06:50:37 51°13.982 2°55.546 -999 -999 -999 -999 -999
2008-05-23 06:50:42 51°13.991 2°55.537 -999 -999 -999 -999 -999
2008-05-23 06:50:47 51°14.001 2°55.529 -999 -999 -999 -999 -999
2008-05-23 06:50:52 51°14.01 2°55.521 -999 -999 -999 -999 -999
2008-05-23 06:50:57 51°14.02 2°55.512 -999 -999 -999 -999 -999
2008-05-23 06:51:02 51°14.031 2°55.502 -999 -999 -999 -999 -999
2008-05-23 06:51:07 51°14.041 2°55.493 -999 -999 -999 -999 -999
2008-05-23 06:51:12 51°14.052 2°55.483 -999 -999 -999 -999 -999
2008-05-23 06:51:17 51°14.064 2°55.474 -999 -999 -999 -999 -999
2008-05-23 06:51:22 51°14.076 2°55.463 -999 -999 -999 -999 -999
2008-05-23 06:51:27 51°14.088 2°55.454 -999 -999 -999 -999 -999
2008-05-23 06:51:32 51°14.1 2°55.444 -999 -999 -999 -999 -999
2008-05-23 06:51:37 51°14.113 2°55.433 -999 -999 -999 -999 -999
2008-05-23 06:51:42 51°14.125 2°55.421 -999 -999 -999 -999 -999
2008-05-23 06:51:47 51°14.138 2°55.41 -999 -999 -999 -999 -999
2008-05-23 06:51:52 51°14.151 2°55.397 -999 -999 -999 -999 -999
2008-05-23 06:51:57 51°14.163 2°55.383 -999 -999 -999 -999 -999
2008-05-23 06:52:02 51°14.176 2°55.369 -999 -999 -999 -999 -999
2008-05-23 06:52:07 51°14.189 2°55.354 -999 -999 -999 -999 -999
2008-05-23 06:52:12 51°14.202 2°55.339 -999 -999 -999 -999 -999
2008-05-23 06:52:17 51°14.215 2°55.323 -999 -999 -999 -999 -999
2008-05-23 06:52:22 51°14.228 2°55.307 -999 -999 -999 -999 -999
2008-05-23 06:52:27 51°14.241 2°55.29 -999 -999 -999 -999 -999
2008-05-23 06:52:32 51°14.253 2°55.273 -999 -999 -999 -999 -999
2008-05-23 06:52:37 51°14.265 2°55.254 -999 -999 -999 -999 -999
2008-05-23 06:52:42 51°14.278 2°55.236 -999 -999 -999 -999 -999
2008-05-23 06:52:47 51°14.29 2°55.218 -999 -999 -999 -999 -999
2008-05-23 06:52:51 51°14.299 2°55.203 -999 -999 -999 -999 -999
2008-05-23 06:52:57 51°14.313 2°55.181 -999 -999 -999 -999 -999
2008-05-23 06:53:02 51°14.325 2°55.162 -999 -999 -999 -999 -999
2008-05-23 06:53:07 51°14.335 2°55.142 -999 -999 -999 -999 -999
2008-05-23 06:53:12 51°14.346 2°55.122 -999 -999 -999 -999 -999
2008-05-23 06:53:16 51°14.355 2°55.105 -999 -999 -999 -999 -999
2008-05-23 06:53:22 51°14.368 2°55.081 -999 -999 -999 -999 -999
2008-05-23 06:53:27 51°14.379 2°55.061 -999 -999 -999 -999 -999
2008-05-23 06:53:32 51°14.39 2°55.041 -999 -999 -999 -999 -999
2008-05-23 06:53:37 51°14.403 2°55.023 -999 -999 -999 -999 -999
2008-05-23 06:53:42 51°14.416 2°55.005 -999 -999 -999 -999 -999
2008-05-23 06:53:47 51°14.429 2°54.989 -999 -999 -999 -999 -999
2008-05-23 06:53:52 51°14.443 2°54.973 -999 -999 -999 -999 -999
2008-05-23 06:53:57 51°14.457 2°54.957 -999 -999 -999 -999 -999
2008-05-23 06:54:02 51°14.471 2°54.94 -999 -999 -999 -999 -999
2008-05-23 06:54:07 51°14.486 2°54.925 -999 -999 -999 -999 -999
2008-05-23 06:54:12 51°14.5 2°54.909 -999 -999 -999 -999 -999
2008-05-23 06:54:17 51°14.515 2°54.896 -999 -999 -999 -999 -999
2008-05-23 06:54:22 51°14.53 2°54.882 -999 -999 -999 -999 -999
2008-05-23 06:54:27 51°14.545 2°54.87 -999 -999 -999 -999 -999
2008-05-23 06:54:33 51°14.563 2°54.856 -999 -999 -999 -999 -999
2008-05-23 06:54:37 51°14.575 2°54.847 -999 -999 -999 -999 -999
2008-05-23 06:54:43 51°14.594 2°54.832 -999 -999 -999 -999 -999
2008-05-23 06:54:48 51°14.608 2°54.82 -999 -999 -999 -999 -999
2008-05-23 06:54:52 51°14.621 2°54.81 -999 -999 -999 -999 -999
2008-05-23 06:54:57 51°14.635 2°54.798 -999 -999 -999 -999 -999
2008-05-23 06:55:03 51°14.653 2°54.784 -999 -999 -999 -999 -999
2008-05-23 06:55:08 51°14.668 2°54.772 -999 -999 -999 -999 -999
2008-05-23 06:55:12 51°14.68 2°54.762 -999 -999 -999 -999 -999
2008-05-23 06:55:17 51°14.696 2°54.751 -999 -999 -999 -999 -999
2008-05-23 06:55:23 51°14.714 2°54.737 -999 -999 -999 -999 -999
2008-05-23 06:55:28 51°14.729 2°54.725 -999 -999 -999 -999 -999
2008-05-23 06:55:32 51°14.741 2°54.715 -999 -999 -999 -999 -999
2008-05-23 06:55:38 51°14.759 2°54.701 -999 -999 -999 -999 -999
2008-05-23 06:55:43 51°14.774 2°54.688 -999 -999 -999 -999 -999
2008-05-23 06:55:48 51°14.788 2°54.676 -999 -999 -999 -999 -999
2008-05-23 06:55:52 51°14.8 2°54.666 -999 -999 -999 -999 -999
2008-05-23 06:55:57 51°14.815 2°54.653 -999 -999 -999 -999 -999
2008-05-23 06:56:02 51°14.83 2°54.64 -999 -999 -999 -999 -999
2008-05-23 06:56:08 51°14.848 2°54.624 -999 -999 -999 -999 -999
2008-05-23 06:56:12 51°14.859 2°54.614 -999 -999 -999 -999 -999
2008-05-23 06:56:17 51°14.874 2°54.601 -999 -999 -999 -999 -999
2008-05-23 06:56:22 51°14.889 2°54.589 -999 -999 -999 -999 -999
2008-05-23 06:56:28 51°14.907 2°54.574 -999 -999 -999 -999 -999
2008-05-23 06:56:32 51°14.919 2°54.564 -999 -999 -999 -999 -999
2008-05-23 06:56:37 51°14.934 2°54.552 -999 -999 -999 -999 -999
2008-05-23 06:56:42 51°14.948 2°54.54 -999 -999 -999 -999 -999
2008-05-23 06:56:48 51°14.966 2°54.525 -999 -999 -999 -999 -999
2008-05-23 06:56:53 51°14.981 2°54.512 -999 -999 -999 -999 -999
2008-05-23 06:56:57 51°14.993 2°54.503 -999 -999 -999 -999 -999
2008-05-23 06:57:03 51°15.01 2°54.488 -999 -999 -999 -999 -999
2008-05-23 06:57:08 51°15.025 2°54.476 -999 -999 -999 -999 -999
2008-05-23 06:57:12 51°15.037 2°54.466 -999 -999 -999 -999 -999
2008-05-23 06:57:17 51°15.051 2°54.454 -999 -999 -999 -999 -999
2008-05-23 06:57:23 51°15.069 2°54.439 -999 -999 -999 -999 -999
2008-05-23 06:57:28 51°15.084 2°54.427 -999 -999 -999 -999 -999
2008-05-23 06:57:32 51°15.095 2°54.417 -999 -999 -999 -999 -999
2008-05-23 06:57:38 51°15.113 2°54.403 -999 -999 -999 -999 -999
2008-05-23 06:57:43 51°15.128 2°54.391 -999 -999 -999 -999 -999
2008-05-23 06:57:48 51°15.143 2°54.379 -999 -999 -999 -999 -999
2008-05-23 06:57:52 51°15.155 2°54.369 -999 -999 -999 -999 -999
2008-05-23 06:57:57 51°15.17 2°54.357 -999 -999 -999 -999 -999
2008-05-23 06:58:03 51°15.188 2°54.342 -999 -999 -999 -999 -999
2008-05-23 06:58:08 51°15.203 2°54.33 -999 -999 -999 -999 -999
2008-05-23 06:58:12 51°15.215 2°54.32 -999 345 -999 -999 -999
2008-05-23 06:58:17 51°15.23 2°54.308 6 346 -999 -999 -999
2008-05-23 06:58:22 51°15.245 2°54.296 5.6 347 -999 -999 -999
2008-05-23 06:58:27 51°15.26 2°54.283 6 346 -999 -999 -999
2008-05-23 06:58:32 51°15.275 2°54.27 6 348 -999 -999 -999
2008-05-23 06:58:37 51°15.29 2°54.258 6 347 14.7 -999 54
2008-05-23 06:58:42 51°15.305 2°54.245 5.8 347 14.7 -999 54
2008-05-23 06:58:47 51°15.32 2°54.233 5.3 346 14.8 -999 70
2008-05-23 06:58:52 51°15.335 2°54.221 6.2 346 14.8 -999 70
2008-05-23 06:58:57 51°15.35 2°54.209 5.9 346 14.7 101330 70
2008-05-23 06:59:01 51°15.362 2°54.199 5.7 347 14.7 101330 70
2008-05-23 06:59:06 51°15.377 2°54.187 5.1 348 14.7 101340 69
2008-05-23 06:59:12 51°15.395 2°54.172 5.2 347 14.7 101340 69
2008-05-23 06:59:16 51°15.408 2°54.162 5.4 347 14.7 101330 70
2008-05-23 06:59:21 51°15.423 2°54.149 5.7 347 14.7 101330 70
2008-05-23 06:59:26 51°15.438 2°54.137 3.3 347 14.7 101340 70
2008-05-23 06:59:31 51°15.453 2°54.124 6 346 14.7 101340 70
2008-05-23 06:59:36 51°15.468 2°54.112 5.8 344 14.7 101330 69
2008-05-23 06:59:41 51°15.483 2°54.099 5.9 346 14.7 101330 69
2008-05-23 06:59:46 51°15.498 2°54.085 5.9 346 14.7 101340 69
2008-05-23 06:59:51 51°15.513 2°54.072 5.4 345 14.7 101340 69
2008-05-23 06:59:56 51°15.528 2°54.059 5.1 344 14.7 101330 69
2008-05-23 07:00:00 51°15.54 2°54.048 5.5 344 14.7 101330 69
2008-05-23 07:00:05 51°15.555 2°54.035 6.1 344 14.7 101330 69
2008-05-23 07:00:10 51°15.57 2°54.021 5.5 346 14.7 101330 69
2008-05-23 07:00:16 51°15.587 2°54.006 5.4 346 14.7 101330 70
2008-05-23 07:00:20 51°15.599 2°53.995 6 345 14.7 101330 70
2008-05-23 07:00:25 51°15.614 2°53.981 6.3 344 14.7 101330 70
2008-05-23 07:00:30 51°15.629 2°53.968 6.2 340 14.7 101330 70
2008-05-23 07:00:35 51°15.644 2°53.954 5.8 342 14.7 101330 69
2008-05-23 07:00:40 51°15.659 2°53.941 5 342 14.7 101330 69
2008-05-23 07:00:45 51°15.674 2°53.928 5.7 343 14.7 101330 70
2008-05-23 07:00:49 51°15.686 2°53.917 6.1 344 14.7 101330 70
2008-05-23 07:00:54 51°15.701 2°53.904 5.5 344 14.7 101330 71
2008-05-23 07:01:00 51°15.718 2°53.887 5.6 344 14.7 101330 71
2008-05-23 07:01:04 51°15.73 2°53.876 6.2 344 14.7 101330 71
2008-05-23 07:01:09 51°15.745 2°53.863 5.7 343 14.7 101330 71
2008-05-23 07:01:14 51°15.76 2°53.85 6.3 344 14.7 101340 70
2008-05-23 07:01:19 51°15.776 2°53.838 6.7 345 14.7 101340 70
2008-05-23 07:01:24 51°15.791 2°53.825 6.5 345 14.7 101330 71
2008-05-23 07:01:29 51°15.806 2°53.813 6.3 346 14.7 101330 71
2008-05-23 07:01:34 51°15.821 2°53.799 5.6 345 14.7 101330 71
2008-05-23 07:01:39 51°15.836 2°53.786 5.6 346 14.7 101330 71
2008-05-23 07:01:44 51°15.851 2°53.773 6.1 345 14.7 101340 70
2008-05-23 07:01:49 51°15.866 2°53.759 5.8 344 14.7 101340 70
2008-05-23 07:01:53 51°15.878 2°53.748 6.2 345 14.7 101330 70
2008-05-23 07:01:58 51°15.892 2°53.735 6.1 346 14.7 101330 70
2008-05-23 07:02:03 51°15.907 2°53.721 6.1 345 14.7 101340 71
2008-05-23 07:02:09 51°15.925 2°53.704 6.4 345 14.7 101340 71
2008-05-23 07:02:14 51°15.94 2°53.69 5.5 345 14.7 101340 71
2008-05-23 07:02:19 51°15.954 2°53.676 6.5 346 14.7 101340 71
2008-05-23 07:02:24 51°15.969 2°53.662 6.3 344 14.7 101340 71
2008-05-23 07:02:29 51°15.984 2°53.649 6.5 347 14.7 101340 71
2008-05-23 07:02:34 51°15.999 2°53.635 6.3 346 14.7 101340 70
2008-05-23 07:02:39 51°16.014 2°53.622 6 346 14.7 101340 70
2008-05-23 07:02:44 51°16.029 2°53.608 6 346 14.7 101340 71
2008-05-23 07:02:49 51°16.044 2°53.595 5.8 347 14.7 101340 71
2008-05-23 07:02:54 51°16.059 2°53.58 6.5 347 14.7 101340 70
2008-05-23 07:02:59 51°16.073 2°53.567 6.5 346 14.7 101340 70
2008-05-23 07:03:04 51°16.088 2°53.552 5.5 348 14.7 101340 71
2008-05-23 07:03:09 51°16.102 2°53.537 5.7 348 14.7 101340 71
2008-05-23 07:03:14 51°16.117 2°53.522 6.4 347 14.7 101340 71
2008-05-23 07:03:19 51°16.131 2°53.507 5.8 348 14.7 101340 71
2008-05-23 07:03:24 51°16.146 2°53.491 5.7 347 14.7 101340 71
2008-05-23 07:03:29 51°16.16 2°53.476 5.9 348 14.7 101340 71
2008-05-23 07:03:34 51°16.175 2°53.46 6.3 350 14.7 101340 71
2008-05-23 07:03:39 51°16.189 2°53.445 6.1 350 14.7 101340 71
2008-05-23 07:03:44 51°16.203 2°53.429 6 349 14.7 101340 71
2008-05-23 07:03:49 51°16.218 2°53.414 6.5 349 14.7 101340 71
2008-05-23 07:03:54 51°16.232 2°53.398 5.5 350 14.7 101340 71
2008-05-23 07:03:59 51°16.246 2°53.383 5.7 350 14.7 101340 71
2008-05-23 07:04:04 51°16.261 2°53.368 6 350 14.7 101340 71
2008-05-23 07:04:09 51°16.275 2°53.352 5.6 350 14.7 101340 71
2008-05-23 07:04:14 51°16.29 2°53.337 5.8 350 14.7 101340 71
2008-05-23 07:04:19 51°16.304 2°53.321 6.2 349 14.7 101340 71
2008-05-23 07:04:24 51°16.318 2°53.306 6 350 14.7 101340 70
2008-05-23 07:04:29 51°16.333 2°53.291 6 348 14.7 101340 70
2008-05-23 07:04:34 51°16.347 2°53.275 5.6 349 14.7 101340 71
2008-05-23 07:04:39 51°16.362 2°53.26 6.1 350 14.7 101340 71
2008-05-23 07:04:44 51°16.376 2°53.245 5.9 350 14.7 101340 71
2008-05-23 07:04:49 51°16.39 2°53.229 5.9 350 14.7 101340 71
2008-05-23 07:04:54 51°16.405 2°53.214 5.6 349 14.7 101340 70
2008-05-23 07:04:59 51°16.419 2°53.199 6 351 14.7 101340 70
2008-05-23 07:05:04 51°16.434 2°53.184 5.7 353 14.7 101340 70
2008-05-23 07:05:09 51°16.448 2°53.169 6.1 349 14.7 101340 70
2008-05-23 07:05:13 51°16.46 2°53.157 6.1 348 14.7 101340 70
2008-05-23 07:05:19 51°16.477 2°53.138 5.7 350 14.7 101340 70
2008-05-23 07:05:24 51°16.492 2°53.123 5.5 352 14.7 101340 71
2008-05-23 07:05:29 51°16.506 2°53.108 5.7 350 14.7 101340 71
2008-05-23 07:05:34 51°16.521 2°53.093 5.7 350 14.7 101330 70
2008-05-23 07:05:39 51°16.536 2°53.078 5.8 350 14.7 101330 70
2008-05-23 07:05:44 51°16.55 2°53.063 6 351 14.7 101340 70
2008-05-23 07:05:49 51°16.565 2°53.048 5.9 351 14.7 101340 70
2008-05-23 07:05:54 51°16.579 2°53.033 5.5 351 14.6 101340 70
2008-05-23 07:05:59 51°16.594 2°53.018 5.7 350 14.6 101340 70
2008-05-23 07:06:04 51°16.608 2°53.003 5.8 351 14.7 101340 70
2008-05-23 07:06:09 51°16.623 2°52.987 5.1 350 14.7 101340 70
2008-05-23 07:06:14 51°16.637 2°52.972 5.3 351 14.7 101340 70
2008-05-23 07:06:19 51°16.651 2°52.957 5.7 351 14.7 101340 70
2008-05-23 07:06:24 51°16.666 2°52.942 5.5 351 14.7 101340 70
2008-05-23 07:06:29 51°16.68 2°52.927 5.6 350 14.7 101340 70
2008-05-23 07:06:34 51°16.695 2°52.912 5.2 351 14.7 101330 71
2008-05-23 07:06:39 51°16.709 2°52.898 5.4 350 14.7 101330 71
2008-05-23 07:06:44 51°16.724 2°52.883 5.1 348 14.7 101340 70
2008-05-23 07:06:49 51°16.738 2°52.868 5.6 350 14.7 101340 70
2008-05-23 07:06:54 51°16.753 2°52.853 5.8 351 14.7 101340 70
2008-05-23 07:06:59 51°16.767 2°52.838 5.4 351 14.7 101340 70
2008-05-23 07:07:04 51°16.782 2°52.824 5.2 353 14.7 101340 71
2008-05-23 07:07:09 51°16.796 2°52.809 5.3 349 14.7 101340 71
2008-05-23 07:07:13 51°16.808 2°52.797 5.5 352 14.7 101340 71
2008-05-23 07:07:19 51°16.825 2°52.78 5.3 351 14.7 101340 71
2008-05-23 07:07:24 51°16.839 2°52.765 5 352 14.7 101330 70
2008-05-23 07:07:29 51°16.854 2°52.75 4.9 351 14.7 101330 70
2008-05-23 07:07:34 51°16.868 2°52.735 5.4 352 14.7 101340 70
2008-05-23 07:07:38 51°16.88 2°52.724 5.5 351 14.7 101340 70
2008-05-23 07:07:44 51°16.897 2°52.706 5.8 349 14.7 101340 71
2008-05-23 07:07:49 51°16.911 2°52.691 5.6 352 14.7 101340 71
2008-05-23 07:07:54 51°16.926 2°52.677 5.5 352 14.7 101340 71
2008-05-23 07:07:59 51°16.941 2°52.662 5.6 351 14.7 101340 71
2008-05-23 07:08:04 51°16.955 2°52.647 5.1 350 14.7 101340 71
2008-05-23 07:08:09 51°16.969 2°52.632 5.9 351 14.7 101340 71
2008-05-23 07:08:14 51°16.984 2°52.618 5.5 352 14.7 101330 71
2008-05-23 07:08:19 51°16.998 2°52.602 5.8 353 14.7 101330 71
2008-05-23 07:08:24 51°17.013 2°52.588 5.8 351 14.7 101340 71
2008-05-23 07:08:29 51°17.027 2°52.573 5.4 351 14.7 101340 71
2008-05-23 07:08:34 51°17.042 2°52.559 5.4 351 14.7 101340 71
2008-05-23 07:08:39 51°17.057 2°52.545 6 351 14.7 101340 71
2008-05-23 07:08:44 51°17.072 2°52.535 6.1 350 14.7 101330 72
2008-05-23 07:08:49 51°17.087 2°52.524 6.3 349 14.7 101330 72
2008-05-23 07:08:54 51°17.103 2°52.514 7.2 350 14.7 101340 72
2008-05-23 07:08:59 51°17.119 2°52.505 6.7 349 14.7 101340 72
2008-05-23 07:09:04 51°17.135 2°52.497 7.3 348 14.7 101340 72
2008-05-23 07:09:09 51°17.151 2°52.49 6.5 349 14.7 101340 72
2008-05-23 07:09:13 51°17.164 2°52.485 7.4 350 14.7 101330 72
2008-05-23 07:09:19 51°17.184 2°52.477 6.4 347 14.7 101330 72
2008-05-23 07:09:24 51°17.201 2°52.471 7.7 347 14.7 101330 72
2008-05-23 07:09:29 51°17.217 2°52.466 6.9 348 14.7 101330 72
2008-05-23 07:09:34 51°17.234 2°52.46 7.5 348 14.7 101330 72
2008-05-23 07:09:39 51°17.25 2°52.454 7.5 349 14.7 101330 72
2008-05-23 07:09:44 51°17.267 2°52.449 7.4 348 14.7 101330 72
2008-05-23 07:09:49 51°17.283 2°52.445 7.3 348 14.7 101330 72
2008-05-23 07:09:53 51°17.296 2°52.44 7.3 347 14.7 101330 72
2008-05-23 07:09:59 51°17.316 2°52.434 7 346 14.7 101330 72
2008-05-23 07:10:04 51°17.333 2°52.428 6.3 346 14.7 101330 72
2008-05-23 07:10:09 51°17.349 2°52.423 6.4 348 14.7 101330 72
2008-05-23 07:10:14 51°17.366 2°52.417 7.2 347 14.7 101330 72
2008-05-23 07:10:19 51°17.382 2°52.411 6.8 348 14.7 101330 72
2008-05-23 07:10:24 51°17.399 2°52.405 6.5 348 14.7 101330 72
2008-05-23 07:10:29 51°17.415 2°52.4 6.7 348 14.7 101330 72
2008-05-23 07:10:34 51°17.432 2°52.394 6.2 346 14.7 101330 72
2008-05-23 07:10:39 51°17.448 2°52.39 6.6 348 14.7 101330 72
2008-05-23 07:10:44 51°17.465 2°52.386 6.9 347 14.7 101330 71
2008-05-23 07:10:49 51°17.481 2°52.382 6.6 347 14.7 101330 71
2008-05-23 07:10:54 51°17.498 2°52.378 6.9 346 14.7 101330 72
2008-05-23 07:10:59 51°17.515 2°52.375 6.9 347 14.7 101330 72
2008-05-23 07:11:04 51°17.531 2°52.371 7.5 347 14.7 101330 71
2008-05-23 07:11:09 51°17.548 2°52.368 7 347 14.7 101330 71
2008-05-23 07:11:14 51°17.564 2°52.364 6.7 347 14.7 101330 71
2008-05-23 07:11:19 51°17.581 2°52.361 7.5 345 14.7 101330 71
2008-05-23 07:11:24 51°17.598 2°52.356 6.9 345 14.7 101330 72
2008-05-23 07:11:29 51°17.615 2°52.353 6.7 346 14.7 101330 72
2008-05-23 07:11:34 51°17.631 2°52.349 6.9 345 14.7 101330 72
2008-05-23 07:11:39 51°17.648 2°52.345 7.6 346 14.7 101330 72
2008-05-23 07:11:44 51°17.665 2°52.342 7 345 14.7 101330 72
2008-05-23 07:11:49 51°17.681 2°52.338 7.9 347 14.7 101330 72
2008-05-23 07:11:53 51°17.694 2°52.336 7.8 347 14.7 101330 72
2008-05-23 07:11:59 51°17.714 2°52.334 8 345 14.7 101330 72
2008-05-23 07:12:04 51°17.731 2°52.332 7.3 346 14.7 101330 72
2008-05-23 07:12:09 51°17.747 2°52.33 8 346 14.7 101330 72
2008-05-23 07:12:14 51°17.764 2°52.328 6.9 347 14.7 101330 72
2008-05-23 07:12:19 51°17.781 2°52.326 8 346 14.7 101330 72
2008-05-23 07:12:24 51°17.797 2°52.324 8.1 345 14.7 101330 72
2008-05-23 07:12:29 51°17.814 2°52.322 7.2 346 14.7 101330 72
2008-05-23 07:12:34 51°17.83 2°52.32 7.7 347 14.7 101330 72
2008-05-23 07:12:39 51°17.847 2°52.318 6.9 346 14.7 101330 72
2008-05-23 07:12:44 51°17.864 2°52.315 7.6 347 14.7 101330 72
2008-05-23 07:12:49 51°17.88 2°52.313 7 347 14.7 101330 72
2008-05-23 07:12:54 51°17.897 2°52.311 7.7 348 14.7 101330 72
2008-05-23 07:12:59 51°17.913 2°52.308 6.9 346 14.7 101330 72
2008-05-23 07:13:04 51°17.93 2°52.305 7.5 346 14.7 101330 72
2008-05-23 07:13:09 51°17.946 2°52.302 7.8 349 14.7 101330 72
2008-05-23 07:13:14 51°17.963 2°52.299 6.8 348 14.6 101330 72
2008-05-23 07:13:19 51°17.98 2°52.295 6.8 348 14.6 101330 72
2008-05-23 07:13:24 51°17.996 2°52.29 6.8 347 14.6 101330 72
2008-05-23 07:13:29 51°18.013 2°52.285 6.8 347 14.6 101330 72
2008-05-23 07:13:34 51°18.029 2°52.28 6.6 348 14.6 101330 72
2008-05-23 07:13:39 51°18.045 2°52.275 7.2 349 14.6 101330 72
2008-05-23 07:13:44 51°18.062 2°52.271 6.4 348 14.6 101340 72
2008-05-23 07:13:49 51°18.078 2°52.265 7.3 348 14.6 101340 72
2008-05-23 07:13:53 51°18.092 2°52.261 7.3 348 14.7 101330 72
2008-05-23 07:13:59 51°18.111 2°52.255 7.3 349 14.7 101330 72
2008-05-23 07:14:04 51°18.128 2°52.25 7.1 348 14.6 101340 72
2008-05-23 07:14:09 51°18.144 2°52.245 7.2 350 14.6 101340 72
2008-05-23 07:14:14 51°18.161 2°52.24 7.5 349 14.6 101330 72
2008-05-23 07:14:19 51°18.177 2°52.235 7.2 348 14.6 101330 72
2008-05-23 07:14:24 51°18.194 2°52.23 7.3 348 14.6 101340 72
2008-05-23 07:14:29 51°18.21 2°52.225 6.4 349 14.6 101340 72
2008-05-23 07:14:34 51°18.227 2°52.22 6.9 350 14.6 101340 71
2008-05-23 07:14:39 51°18.243 2°52.215 6.7 349 14.6 101340 71
2008-05-23 07:14:44 51°18.26 2°52.211 6.5 349 14.6 101340 71
2008-05-23 07:14:49 51°18.276 2°52.206 7.2 348 14.6 101340 71
2008-05-23 07:14:54 51°18.293 2°52.201 7.1 349 14.6 101340 72
2008-05-23 07:14:59 51°18.309 2°52.196 6.4 349 14.6 101340 72
2008-05-23 07:15:04 51°18.326 2°52.191 7.2 349 14.6 101330 71
2008-05-23 07:15:09 51°18.342 2°52.187 6.1 348 14.6 101330 71
2008-05-23 07:15:14 51°18.359 2°52.182 6.8 348 14.7 101340 71
2008-05-23 07:15:19 51°18.375 2°52.177 6.6 350 14.7 101340 71
2008-05-23 07:15:24 51°18.392 2°52.172 6.4 349 14.6 101340 71
2008-05-23 07:15:29 51°18.408 2°52.167 6 348 14.6 101340 71
2008-05-23 07:15:34 51°18.425 2°52.163 6 349 14.7 101330 72
2008-05-23 07:15:39 51°18.441 2°52.158 6.7 349 14.7 101330 72
2008-05-23 07:15:44 51°18.458 2°52.153 6.6 349 14.7 101330 71
2008-05-23 07:15:49 51°18.474 2°52.148 6.2 347 14.7 101330 71
2008-05-23 07:15:54 51°18.491 2°52.143 6 347 14.7 101330 72
2008-05-23 07:15:59 51°18.507 2°52.138 6.2 349 14.7 101330 72
2008-05-23 07:16:04 51°18.524 2°52.133 6.9 348 14.7 101340 71
2008-05-23 07:16:09 51°18.54 2°52.128 6.2 348 14.7 101340 71
2008-05-23 07:16:14 51°18.557 2°52.123 6.9 348 14.7 101340 72
2008-05-23 07:16:19 51°18.573 2°52.118 6.3 347 14.7 101340 72
2008-05-23 07:16:24 51°18.59 2°52.113 6.8 348 14.7 101340 71
2008-05-23 07:16:29 51°18.606 2°52.108 6.2 348 14.7 101340 71
2008-05-23 07:16:33 51°18.619 2°52.104 6.2 345 14.7 101340 72
2008-05-23 07:16:39 51°18.639 2°52.098 6.7 348 14.7 101340 72
2008-05-23 07:16:44 51°18.656 2°52.093 6.4 348 14.7 101340 71
2008-05-23 07:16:49 51°18.672 2°52.088 7 349 14.7 101340 71
2008-05-23 07:16:54 51°18.689 2°52.083 6.5 347 14.7 101340 72
2008-05-23 07:16:59 51°18.705 2°52.078 6.6 349 14.7 101340 72
2008-05-23 07:17:04 51°18.722 2°52.073 7 348 14.7 101340 72
2008-05-23 07:17:09 51°18.738 2°52.068 6.3 348 14.7 101340 72
2008-05-23 07:17:14 51°18.755 2°52.063 7 349 14.7 101330 72
2008-05-23 07:17:19 51°18.771 2°52.058 6.2 348 14.7 101330 72
2008-05-23 07:17:24 51°18.788 2°52.053 6.7 349 14.7 101330 72
2008-05-23 07:17:29 51°18.805 2°52.047 6.9 348 14.7 101330 72
2008-05-23 07:17:34 51°18.821 2°52.043 6.2 348 14.7 101340 72
2008-05-23 07:17:39 51°18.838 2°52.038 7.1 348 14.7 101340 72
2008-05-23 07:17:44 51°18.855 2°52.033 6.6 348 14.7 101340 72
2008-05-23 07:17:49 51°18.871 2°52.029 6.8 350 14.7 101340 72
2008-05-23 07:17:54 51°18.888 2°52.024 6.5 349 14.7 101340 72
2008-05-23 07:17:59 51°18.905 2°52.019 6.9 348 14.7 101340 72
2008-05-23 07:18:04 51°18.921 2°52.014 6.8 348 14.7 101340 72
2008-05-23 07:18:09 51°18.938 2°52.01 7 348 14.7 101340 72
2008-05-23 07:18:14 51°18.954 2°52.005 6.5 348 14.7 101340 71
2008-05-23 07:18:19 51°18.971 2°52 6.5 348 14.7 101340 71
2008-05-23 07:18:24 51°18.987 2°51.995 7 348 14.7 101330 72
2008-05-23 07:18:29 51°19.004 2°51.99 6.6 349 14.7 101330 72
2008-05-23 07:18:33 51°19.018 2°51.987 7.3 350 14.7 101340 71
2008-05-23 07:18:39 51°19.038 2°51.981 6.4 349 14.7 101340 71
2008-05-23 07:18:44 51°19.054 2°51.976 7.3 350 14.7 101340 72
2008-05-23 07:18:49 51°19.071 2°51.971 7.4 349 14.7 101340 72
2008-05-23 07:18:54 51°19.088 2°51.966 7.5 347 14.7 101340 71
2008-05-23 07:18:59 51°19.104 2°51.962 7.4 348 14.7 101340 71
2008-05-23 07:19:04 51°19.121 2°51.958 7.1 349 14.7 101340 71
2008-05-23 07:19:09 51°19.138 2°51.954 6.9 349 14.7 101340 71
2008-05-23 07:19:14 51°19.155 2°51.95 6.5 349 14.7 101340 71
2008-05-23 07:19:19 51°19.171 2°51.945 6.7 348 14.7 101340 71
2008-05-23 07:19:24 51°19.188 2°51.941 6.3 348 14.7 101340 71
2008-05-23 07:19:29 51°19.205 2°51.937 7.2 349 14.7 101340 71
2008-05-23 07:19:34 51°19.221 2°51.933 7 349 14.7 101340 72
2008-05-23 07:19:39 51°19.238 2°51.929 7.1 348 14.7 101340 72
2008-05-23 07:19:44 51°19.255 2°51.924 6.2 348 14.7 101340 71
2008-05-23 07:19:49 51°19.272 2°51.92 6.2 349 14.7 101340 71
2008-05-23 07:19:54 51°19.289 2°51.916 7.4 350 14.7 101340 71
2008-05-23 07:19:59 51°19.305 2°51.912 6.4 348 14.7 101340 71
2008-05-23 07:20:04 51°19.322 2°51.908 6.8 348 14.7 101340 71
2008-05-23 07:20:09 51°19.339 2°51.904 5.9 348 14.7 101340 71
2008-05-23 07:20:14 51°19.356 2°51.9 6.9 351 14.7 101340 71
2008-05-23 07:20:19 51°19.373 2°51.896 6 349 14.7 101340 71
2008-05-23 07:20:24 51°19.389 2°51.892 6.2 349 14.8 101340 71
2008-05-23 07:20:29 51°19.406 2°51.888 6.8 348 14.8 101340 71
2008-05-23 07:20:34 51°19.423 2°51.884 6.5 350 14.8 101340 71
2008-05-23 07:20:39 51°19.44 2°51.879 6.2 347 14.8 101340 71
2008-05-23 07:20:44 51°19.457 2°51.876 7 349 14.8 101350 71
2008-05-23 07:20:49 51°19.473 2°51.872 7 349 14.8 101350 71
2008-05-23 07:20:54 51°19.49 2°51.868 6 348 14.8 101340 71
2008-05-23 07:20:59 51°19.507 2°51.864 6.3 348 14.8 101340 71
2008-05-23 07:21:04 51°19.524 2°51.861 7.3 348 14.8 101340 72
2008-05-23 07:21:09 51°19.541 2°51.858 6.7 346 14.8 101340 72
2008-05-23 07:21:14 51°19.558 2°51.855 6.3 348 14.8 101340 72
2008-05-23 07:21:19 51°19.575 2°51.852 6.9 348 14.8 101340 72
2008-05-23 07:21:24 51°19.591 2°51.848 6.9 348 14.8 101340 72
2008-05-23 07:21:29 51°19.608 2°51.844 6.5 348 14.8 101340 72
2008-05-23 07:21:34 51°19.625 2°51.84 5.9 349 14.8 101340 72
2008-05-23 07:21:39 51°19.641 2°51.836 5.8 348 14.8 101340 72
2008-05-23 07:21:44 51°19.658 2°51.831 6 349 14.8 101340 72
2008-05-23 07:21:49 51°19.674 2°51.827 6.9 349 14.8 101340 72
2008-05-23 07:21:54 51°19.691 2°51.822 6 349 14.8 101340 72
2008-05-23 07:21:59 51°19.707 2°51.818 6.5 346 14.8 101340 72
2008-05-23 07:22:04 51°19.724 2°51.813 6.1 348 14.8 101340 72
2008-05-23 07:22:09 51°19.741 2°51.808 6.3 349 14.8 101340 72
2008-05-23 07:22:14 51°19.757 2°51.804 5.7 349 14.8 101340 72
2008-05-23 07:22:19 51°19.774 2°51.801 6.2 349 14.8 101340 72
2008-05-23 07:22:24 51°19.791 2°51.796 5.8 349 14.8 101340 72
2008-05-23 07:22:29 51°19.807 2°51.794 6.2 347 14.8 101340 72
2008-05-23 07:22:34 51°19.824 2°51.79 6 348 14.8 101340 72
2008-05-23 07:22:39 51°19.84 2°51.787 6 347 14.8 101340 72
2008-05-23 07:22:44 51°19.857 2°51.783 6.6 346 14.9 101340 72
2008-05-23 07:22:49 51°19.874 2°51.78 6.2 348 14.9 101340 72
2008-05-23 07:22:54 51°19.89 2°51.777 7.1 348 14.8 101340 72
2008-05-23 07:22:59 51°19.907 2°51.774 6.2 348 14.8 101340 72
2008-05-23 07:23:04 51°19.924 2°51.771 6.9 347 14.9 101340 73
2008-05-23 07:23:09 51°19.94 2°51.768 6.4 347 14.9 101340 73
2008-05-23 07:23:13 51°19.954 2°51.765 6.8 346 14.9 101340 73
2008-05-23 07:23:19 51°19.974 2°51.761 6.2 346 14.9 101340 73
2008-05-23 07:23:24 51°19.991 2°51.758 6.7 347 14.9 101340 73
2008-05-23 07:23:29 51°20.007 2°51.754 6.3 347 14.9 101340 73
2008-05-23 07:23:34 51°20.024 2°51.751 6.2 348 14.9 101340 73
2008-05-23 07:23:39 51°20.041 2°51.748 6.3 346 14.9 101340 73
2008-05-23 07:23:44 51°20.058 2°51.746 6.6 348 14.9 101340 73
2008-05-23 07:23:49 51°20.074 2°51.743 6.2 346 14.9 101340 73
2008-05-23 07:23:54 51°20.091 2°51.741 6.7 346 14.9 101340 73
2008-05-23 07:23:59 51°20.108 2°51.74 7 347 14.9 101340 73
2008-05-23 07:24:04 51°20.124 2°51.738 6.7 347 14.9 101340 73
2008-05-23 07:24:09 51°20.141 2°51.737 6.4 347 14.9 101340 73
2008-05-23 07:24:14 51°20.158 2°51.735 7 348 14.9 101340 73
2008-05-23 07:24:19 51°20.175 2°51.733 7 348 14.9 101340 73
2008-05-23 07:24:24 51°20.192 2°51.731 6.5 348 14.9 101340 73
2008-05-23 07:24:29 51°20.209 2°51.729 6.4 349 14.9 101340 73
2008-05-23 07:24:34 51°20.226 2°51.726 6.9 348 14.9 101340 73
2008-05-23 07:24:39 51°20.242 2°51.723 6.5 349 14.9 101340 73
2008-05-23 07:24:44 51°20.259 2°51.72 6.6 348 14.9 101340 73
2008-05-23 07:24:49 51°20.276 2°51.717 7 349 14.9 101340 73
2008-05-23 07:24:54 51°20.293 2°51.714 6.2 349 14.9 101340 73
2008-05-23 07:24:59 51°20.31 2°51.71 6.7 350 14.9 101340 73
2008-05-23 07:25:04 51°20.327 2°51.707 6.4 349 14.9 101340 73
2008-05-23 07:25:09 51°20.344 2°51.703 6.9 349 14.9 101340 73
2008-05-23 07:25:14 51°20.361 2°51.7 6.3 349 14.9 101340 72
2008-05-23 07:25:19 51°20.377 2°51.697 6.9 349 14.9 101340 72
2008-05-23 07:25:24 51°20.394 2°51.693 6.3 349 14.9 101340 72
2008-05-23 07:25:29 51°20.411 2°51.69 6.4 349 14.9 101340 72
2008-05-23 07:25:34 51°20.428 2°51.686 6.9 350 14.9 101340 72
2008-05-23 07:25:39 51°20.445 2°51.682 6.3 349 14.9 101340 72
2008-05-23 07:25:44 51°20.462 2°51.679 6.7 351 14.9 101340 72
2008-05-23 07:25:49 51°20.479 2°51.675 6 348 14.9 101340 72
2008-05-23 07:25:54 51°20.496 2°51.672 7.1 351 14.9 101340 72
2008-05-23 07:25:59 51°20.513 2°51.669 6.3 350 14.9 101340 72
2008-05-23 07:26:04 51°20.53 2°51.665 6.7 351 14.9 101340 72
2008-05-23 07:26:09 51°20.547 2°51.662 6.9 348 14.9 101340 72
2008-05-23 07:26:14 51°20.564 2°51.659 6.5 351 14.9 101340 72
2008-05-23 07:26:19 51°20.581 2°51.655 6.9 350 14.9 101340 72
2008-05-23 07:26:24 51°20.598 2°51.651 6.3 348 14.9 101340 71
2008-05-23 07:26:29 51°20.616 2°51.647 7 349 14.9 101340 71
2008-05-23 07:26:34 51°20.633 2°51.643 6.9 349 14.9 101340 71
2008-05-23 07:26:39 51°20.65 2°51.639 6.1 348 14.9 101340 71
2008-05-23 07:26:44 51°20.667 2°51.635 6.9 348 14.9 101340 71
2008-05-23 07:26:49 51°20.684 2°51.631 6.4 350 14.9 101340 71
2008-05-23 07:26:54 51°20.701 2°51.627 6.8 349 14.9 101340 71
2008-05-23 07:26:59 51°20.718 2°51.623 6.2 350 14.9 101340 71
2008-05-23 07:27:04 51°20.735 2°51.618 6.9 350 15 101350 72
2008-05-23 07:27:09 51°20.752 2°51.613 6.3 350 15 101350 72
2008-05-23 07:27:14 51°20.769 2°51.608 6.4 349 15 101340 72
2008-05-23 07:27:19 51°20.786 2°51.603 6.4 351 15 101340 72
2008-05-23 07:27:24 51°20.803 2°51.597 6.8 350 15 101340 71
2008-05-23 07:27:29 51°20.82 2°51.591 6.9 350 15 101340 71
2008-05-23 07:27:34 51°20.837 2°51.586 6.3 351 15 101340 71
2008-05-23 07:27:39 51°20.854 2°51.581 6 348 15 101340 71
2008-05-23 07:27:44 51°20.871 2°51.576 7.1 350 15 101350 71
2008-05-23 07:27:49 51°20.888 2°51.571 6 349 15 101350 71
2008-05-23 07:27:53 51°20.902 2°51.567 7 350 15 101340 71
2008-05-23 07:27:59 51°20.922 2°51.562 6.4 350 15 101340 71
2008-05-23 07:28:04 51°20.939 2°51.558 7 350 15 101340 72
2008-05-23 07:28:09 51°20.956 2°51.554 6.1 350 15 101340 72
2008-05-23 07:28:14 51°20.974 2°51.55 6.4 349 15 101340 72
2008-05-23 07:28:19 51°20.991 2°51.546 6.8 349 15 101340 72
2008-05-23 07:28:24 51°21.008 2°51.543 6.9 349 15 101340 72
2008-05-23 07:28:29 51°21.025 2°51.539 6.5 349 15 101340 72
2008-05-23 07:28:34 51°21.042 2°51.536 6.9 349 15 101340 72
2008-05-23 07:28:39 51°21.059 2°51.533 7 350 15 101340 72
2008-05-23 07:28:44 51°21.076 2°51.53 6.2 351 15 101340 72
2008-05-23 07:28:49 51°21.093 2°51.526 6.7 350 15 101340 72
2008-05-23 07:28:54 51°21.111 2°51.523 6.6 349 15 101350 72
2008-05-23 07:28:59 51°21.128 2°51.52 7 350 15 101350 72
2008-05-23 07:29:04 51°21.145 2°51.517 6.5 350 15 101340 72
2008-05-23 07:29:09 51°21.162 2°51.514 6.6 348 15 101340 72
2008-05-23 07:29:14 51°21.18 2°51.512 6.4 350 15 101340 72
2008-05-23 07:29:19 51°21.197 2°51.509 7 350 15 101340 72
2008-05-23 07:29:24 51°21.214 2°51.507 6.3 350 15 101340 72
2008-05-23 07:29:29 51°21.231 2°51.504 6.6 351 15 101340 72
2008-05-23 07:29:34 51°21.248 2°51.501 6.3 350 15 101340 72
2008-05-23 07:29:39 51°21.265 2°51.497 6.4 351 15 101340 72
2008-05-23 07:29:44 51°21.283 2°51.494 6.1 351 15 101340 71
2008-05-23 07:29:49 51°21.3 2°51.491 6.7 351 15 101340 71
2008-05-23 07:29:53 51°21.313 2°51.489 6.8 352 15 101340 71
2008-05-23 07:29:59 51°21.334 2°51.486 6.8 351 15 101340 71
2008-05-23 07:30:04 51°21.351 2°51.484 6.8 350 15 101340 71
2008-05-23 07:30:09 51°21.368 2°51.481 6.3 351 15 101340 71
2008-05-23 07:30:14 51°21.385 2°51.479 6 350 15 101350 72
2008-05-23 07:30:19 51°21.402 2°51.476 6.8 350 15 101350 72
2008-05-23 07:30:24 51°21.419 2°51.473 6.5 348 15 101330 71
2008-05-23 07:30:29 51°21.436 2°51.47 6.6 351 15 101330 71
2008-05-23 07:30:34 51°21.453 2°51.468 6.5 352 15 101350 71
2008-05-23 07:30:39 51°21.469 2°51.465 6.7 350 15 101350 71
2008-05-23 07:30:44 51°21.486 2°51.463 6.3 353 15 101350 71
2008-05-23 07:30:49 51°21.503 2°51.46 6.6 351 15 101350 71
2008-05-23 07:30:54 51°21.519 2°51.458 6.3 352 15 101350 71
2008-05-23 07:30:59 51°21.536 2°51.455 6 352 15 101350 71
2008-05-23 07:31:04 51°21.553 2°51.453 6.8 350 15 101340 72
2008-05-23 07:31:09 51°21.569 2°51.452 6.5 351 15 101340 72
2008-05-23 07:31:14 51°21.586 2°51.451 6.9 350 15 101340 71
2008-05-23 07:31:19 51°21.603 2°51.45 7.1 351 15 101340 71
2008-05-23 07:31:24 51°21.619 2°51.449 6.6 351 15.1 101350 72
2008-05-23 07:31:29 51°21.636 2°51.448 7.2 352 15.1 101350 72
2008-05-23 07:31:34 51°21.652 2°51.447 6.3 350 15 101350 71
2008-05-23 07:31:39 51°21.669 2°51.445 6.5 351 15 101350 71
2008-05-23 07:31:44 51°21.685 2°51.443 6.8 352 15.1 101350 71
2008-05-23 07:31:49 51°21.702 2°51.441 6.4 352 15.1 101350 71
2008-05-23 07:31:54 51°21.719 2°51.439 6.9 353 15.1 101340 71
2008-05-23 07:31:59 51°21.735 2°51.436 6.4 351 15.1 101340 71
2008-05-23 07:32:04 51°21.752 2°51.434 7 351 15.1 101350 72
2008-05-23 07:32:09 51°21.769 2°51.431 6.1 351 15.1 101350 72
2008-05-23 07:32:14 51°21.785 2°51.428 6.7 351 15.1 101340 72
2008-05-23 07:32:19 51°21.802 2°51.425 6.4 352 15.1 101340 72
2008-05-23 07:32:24 51°21.819 2°51.422 6.8 351 15.1 101350 72
2008-05-23 07:32:29 51°21.835 2°51.419 6.9 350 15.1 101350 72
2008-05-23 07:32:34 51°21.852 2°51.417 6.8 350 15.1 101340 72
2008-05-23 07:32:39 51°21.869 2°51.414 6.3 350 15.1 101340 72
2008-05-23 07:32:44 51°21.885 2°51.411 6.6 350 15.1 101340 72
2008-05-23 07:32:49 51°21.902 2°51.408 6.9 350 15.1 101340 72
2008-05-23 07:32:54 51°21.919 2°51.404 6 351 15.1 101350 72
2008-05-23 07:32:59 51°21.935 2°51.4 6.1 349 15.1 101350 72
2008-05-23 07:33:04 51°21.952 2°51.396 5.9 349 15.1 101350 72
2008-05-23 07:33:09 51°21.969 2°51.391 5.9 348 15.1 101350 72
2008-05-23 07:33:14 51°21.985 2°51.386 5.8 348 15.1 101340 72
2008-05-23 07:33:19 51°22.002 2°51.381 6.3 347 15.1 101340 72
2008-05-23 07:33:24 51°22.018 2°51.376 6.1 349 15.1 101340 72
2008-05-23 07:33:29 51°22.035 2°51.371 6.4 349 15.1 101340 72
2008-05-23 07:33:34 51°22.051 2°51.366 5.7 350 15.1 101340 72
2008-05-23 07:33:39 51°22.068 2°51.361 6.5 349 15.1 101340 72
2008-05-23 07:33:44 51°22.084 2°51.356 5.8 349 15.1 101350 72
2008-05-23 07:33:49 51°22.101 2°51.351 6.3 349 15.1 101350 72
2008-05-23 07:33:54 51°22.117 2°51.345 6.6 350 15.1 101350 72
2008-05-23 07:33:59 51°22.134 2°51.341 6.3 350 15.1 101350 72
2008-05-23 07:34:04 51°22.15 2°51.336 6.5 349 15.1 101350 72
2008-05-23 07:34:09 51°22.167 2°51.333 6.1 349 15.1 101350 72
2008-05-23 07:34:14 51°22.184 2°51.329 5.8 349 15.1 101340 72
2008-05-23 07:34:19 51°22.2 2°51.325 5.6 350 15.1 101340 72
2008-05-23 07:34:24 51°22.217 2°51.322 5.2 349 15.1 101340 72
2008-05-23 07:34:29 51°22.234 2°51.318 6.3 347 15.1 101340 72
2008-05-23 07:34:33 51°22.247 2°51.316 6.6 350 15 101350 71
2008-05-23 07:34:39 51°22.267 2°51.312 6.7 349 15 101350 71
2008-05-23 07:34:44 51°22.284 2°51.308 6.5 349 15 101350 71
2008-05-23 07:34:49 51°22.301 2°51.305 6.5 350 15 101350 71
2008-05-23 07:34:54 51°22.318 2°51.301 6.4 349 15 101350 71
2008-05-23 07:34:59 51°22.335 2°51.298 5.7 350 15 101350 71
2008-05-23 07:35:04 51°22.351 2°51.294 6.1 348 15 101340 71
2008-05-23 07:35:09 51°22.368 2°51.291 6.5 349 15 101340 71
2008-05-23 07:35:14 51°22.385 2°51.287 6 349 15.1 101340 71
2008-05-23 07:35:19 51°22.402 2°51.284 6.5 348 15.1 101340 71
2008-05-23 07:35:24 51°22.419 2°51.281 5.7 348 15.1 101350 71
2008-05-23 07:35:29 51°22.436 2°51.277 6.1 350 15.1 101350 71
2008-05-23 07:35:34 51°22.453 2°51.274 5.7 348 15.1 101340 71
2008-05-23 07:35:39 51°22.47 2°51.27 5.9 349 15.1 101340 71
2008-05-23 07:35:44 51°22.487 2°51.266 5.9 350 15.1 101350 71
2008-05-23 07:35:49 51°22.504 2°51.263 6.2 351 15.1 101350 71
2008-05-23 07:35:54 51°22.521 2°51.259 5.7 348 15.1 101350 71
2008-05-23 07:35:59 51°22.538 2°51.254 6 348 15.1 101350 71
2008-05-23 07:36:04 51°22.555 2°51.249 5.7 350 15.1 101350 72
2008-05-23 07:36:09 51°22.572 2°51.245 5.5 349 15.1 101350 72
2008-05-23 07:36:14 51°22.588 2°51.239 5.3 349 15.1 101350 72
2008-05-23 07:36:19 51°22.605 2°51.234 5.8 348 15.1 101350 72
2008-05-23 07:36:24 51°22.622 2°51.229 5.9 348 15.1 101350 71
2008-05-23 07:36:29 51°22.639 2°51.224 6 349 15.1 101350 71
2008-05-23 07:36:34 51°22.656 2°51.22 5.9 348 15.1 101350 72
2008-05-23 07:36:39 51°22.673 2°51.215 6.4 348 15.1 101350 72
2008-05-23 07:36:44 51°22.69 2°51.21 5.4 349 15.1 101360 72
2008-05-23 07:36:49 51°22.707 2°51.206 5.9 350 15.1 101360 72
2008-05-23 07:36:54 51°22.724 2°51.202 5.5 349 15.1 101350 72
2008-05-23 07:36:59 51°22.741 2°51.198 5.8 349 15.1 101350 72
2008-05-23 07:37:04 51°22.758 2°51.194 6.3 349 15.1 101350 72
2008-05-23 07:37:09 51°22.775 2°51.189 6.2 347 15.1 101350 72
2008-05-23 07:37:14 51°22.792 2°51.186 5.9 349 15.1 101340 72
2008-05-23 07:37:19 51°22.809 2°51.181 6.3 348 15.1 101340 72
2008-05-23 07:37:24 51°22.826 2°51.177 6.4 349 15.1 101350 71
2008-05-23 07:37:29 51°22.843 2°51.173 5.5 349 15.1 101350 71
2008-05-23 07:37:34 51°22.86 2°51.17 6.2 349 15.1 101350 71
2008-05-23 07:37:39 51°22.877 2°51.166 6.2 349 15.1 101350 71
2008-05-23 07:37:44 51°22.894 2°51.163 6.6 348 15.1 101350 71
2008-05-23 07:37:49 51°22.911 2°51.159 6.3 347 15.1 101350 71
2008-05-23 07:37:54 51°22.928 2°51.156 6 348 15.1 101350 71
2008-05-23 07:37:59 51°22.944 2°51.152 5.8 349 15.1 101350 71
2008-05-23 07:38:04 51°22.961 2°51.149 6.4 347 15.1 101350 71
2008-05-23 07:38:09 51°22.978 2°51.145 6 346 15.1 101350 71
2008-05-23 07:38:14 51°22.995 2°51.142 6.1 349 15.1 101340 71
2008-05-23 07:38:19 51°23.012 2°51.138 6.2 348 15.1 101340 71
2008-05-23 07:38:24 51°23.029 2°51.134 5.8 349 15.1 101350 72
2008-05-23 07:38:29 51°23.045 2°51.131 6.2 348 15.1 101350 72
2008-05-23 07:38:34 51°23.062 2°51.127 6.3 349 15.1 101340 72
2008-05-23 07:38:39 51°23.079 2°51.123 5.5 348 15.1 101340 72
2008-05-23 07:38:44 51°23.096 2°51.12 6.4 348 15.1 101350 72
2008-05-23 07:38:49 51°23.112 2°51.116 6.2 349 15.1 101350 72
2008-05-23 07:38:54 51°23.129 2°51.112 6 346 15.1 101350 72
2008-05-23 07:38:59 51°23.146 2°51.108 6.1 349 15.1 101350 72
2008-05-23 07:39:04 51°23.162 2°51.105 6.3 347 15.1 101350 72
2008-05-23 07:39:09 51°23.179 2°51.102 5.9 347 15.1 101350 72
2008-05-23 07:39:13 51°23.193 2°51.099 6.1 349 15.1 101350 72
2008-05-23 07:39:19 51°23.213 2°51.095 6.5 347 15.1 101350 72
2008-05-23 07:39:24 51°23.229 2°51.092 6 346 15.1 101350 72
2008-05-23 07:39:29 51°23.246 2°51.088 3.3 346 15.1 101350 72
2008-05-23 07:39:34 51°23.263 2°51.084 5.7 346 15.1 101350 73
2008-05-23 07:39:39 51°23.279 2°51.081 6.4 346 15.1 101350 73
2008-05-23 07:39:44 51°23.296 2°51.077 6.3 348 15.1 101350 72
2008-05-23 07:39:49 51°23.313 2°51.074 6.7 347 15.1 101350 72
2008-05-23 07:39:54 51°23.329 2°51.071 6.3 347 15.1 101350 73
2008-05-23 07:39:59 51°23.346 2°51.068 6.7 346 15.1 101350 73
2008-05-23 07:40:04 51°23.363 2°51.065 5.8 345 15.1 101350 73
2008-05-23 07:40:09 51°23.38 2°51.063 6.6 346 15.1 101350 73
2008-05-23 07:40:14 51°23.397 2°51.06 6.8 346 15.1 101350 73
2008-05-23 07:40:19 51°23.414 2°51.057 6.6 346 15.1 101350 73
2008-05-23 07:40:24 51°23.43 2°51.054 6.5 345 15.1 101350 73
2008-05-23 07:40:29 51°23.447 2°51.052 6.7 346 15.1 101350 73
2008-05-23 07:40:34 51°23.464 2°51.05 5.6 347 15.1 101350 73
2008-05-23 07:40:39 51°23.481 2°51.047 6 345 15.1 101350 73
2008-05-23 07:40:44 51°23.497 2°51.044 5.8 344 15.1 101350 73
2008-05-23 07:40:49 51°23.514 2°51.042 6.6 346 15.1 101350 73
2008-05-23 07:40:54 51°23.531 2°51.04 5.9 346 15.1 101350 73
2008-05-23 07:40:59 51°23.547 2°51.039 6.2 346 15.1 101350 73
2008-05-23 07:41:04 51°23.564 2°51.038 6 346 15.1 101350 73
2008-05-23 07:41:09 51°23.581 2°51.036 5.9 347 15.1 101350 73
2008-05-23 07:41:14 51°23.598 2°51.034 5.8 347 15.1 101350 73
2008-05-23 07:41:19 51°23.615 2°51.032 6 348 15.1 101350 73
2008-05-23 07:41:24 51°23.632 2°51.03 6.9 347 15.1 101350 73
2008-05-23 07:41:29 51°23.649 2°51.028 6.9 347 15.1 101350 73
2008-05-23 07:41:34 51°23.666 2°51.026 6.7 348 15.1 101350 73
2008-05-23 07:41:39 51°23.683 2°51.023 6.6 348 15.1 101350 73
2008-05-23 07:41:44 51°23.7 2°51.02 5.7 347 15 101350 73
2008-05-23 07:41:49 51°23.717 2°51.017 5.7 347 15 101350 73
2008-05-23 07:41:54 51°23.734 2°51.013 5.8 347 15 101350 73
2008-05-23 07:41:59 51°23.751 2°51.01 5.8 348 15 101350 73
2008-05-23 07:42:04 51°23.768 2°51.006 6.3 348 15 101350 72
2008-05-23 07:42:09 51°23.785 2°51.003 6 349 15 101350 72
2008-05-23 07:42:14 51°23.802 2°50.999 6.2 346 15 101360 72
2008-05-23 07:42:19 51°23.818 2°50.996 5.9 348 15 101360 72
2008-05-23 07:42:24 51°23.835 2°50.992 5.9 349 15 101350 72
2008-05-23 07:42:29 51°23.852 2°50.988 5.9 348 15 101350 72
2008-05-23 07:42:34 51°23.869 2°50.985 5.7 349 15 101350 72
2008-05-23 07:42:39 51°23.886 2°50.981 5.9 347 15 101350 72
2008-05-23 07:42:44 51°23.903 2°50.978 6.1 347 15 101350 72
2008-05-23 07:42:49 51°23.92 2°50.974 6.2 347 15 101350 72
2008-05-23 07:42:54 51°23.937 2°50.971 6.3 347 15 101340 72
2008-05-23 07:42:59 51°23.954 2°50.967 6.3 349 15 101340 72
2008-05-23 07:43:04 51°23.971 2°50.962 5.3 347 15 101350 72
2008-05-23 07:43:09 51°23.988 2°50.958 6 348 15 101350 72
2008-05-23 07:43:14 51°24.004 2°50.954 5.8 348 15 101350 72
2008-05-23 07:43:19 51°24.021 2°50.948 5.4 349 15 101350 72
2008-05-23 07:43:24 51°24.038 2°50.943 5.8 347 15 101350 72
2008-05-23 07:43:29 51°24.055 2°50.938 5.3 348 15 101350 72
2008-05-23 07:43:34 51°24.072 2°50.933 5.4 348 15 101360 72
2008-05-23 07:43:39 51°24.088 2°50.927 6 348 15 101360 72
2008-05-23 07:43:44 51°24.105 2°50.922 5.6 346 15 101350 72
2008-05-23 07:43:49 51°24.122 2°50.917 5.7 346 15 101350 72
2008-05-23 07:43:54 51°24.139 2°50.912 5.9 348 15 101350 72
2008-05-23 07:43:59 51°24.156 2°50.907 6.1 347 15 101350 72
2008-05-23 07:44:04 51°24.173 2°50.903 5.6 349 15 101350 72
2008-05-23 07:44:09 51°24.19 2°50.899 6.2 345 15 101350 72
2008-05-23 07:44:14 51°24.207 2°50.896 5.6 346 15 101360 72
2008-05-23 07:44:19 51°24.224 2°50.892 6 345 15 101360 72
2008-05-23 07:44:24 51°24.241 2°50.888 5.8 346 15 101350 72
2008-05-23 07:44:29 51°24.258 2°50.884 5.3 346 15 101350 72
2008-05-23 07:44:34 51°24.275 2°50.88 5.3 345 15 101360 72
2008-05-23 07:44:39 51°24.291 2°50.875 5.7 345 15 101360 72
2008-05-23 07:44:44 51°24.308 2°50.87 5.9 346 15 101350 72
2008-05-23 07:44:49 51°24.325 2°50.865 5 347 15 101350 72
2008-05-23 07:44:54 51°24.342 2°50.859 5.3 347 15 101350 72
2008-05-23 07:44:59 51°24.358 2°50.854 5.2 347 15 101350 72
2008-05-23 07:45:04 51°24.375 2°50.849 5.2 346 15.1 101350 72
2008-05-23 07:45:09 51°24.392 2°50.844 5 346 15.1 101350 72
2008-05-23 07:45:14 51°24.409 2°50.839 5.8 347 15.1 101350 72
2008-05-23 07:45:19 51°24.426 2°50.835 5.2 346 15.1 101350 72
2008-05-23 07:45:24 51°24.442 2°50.831 5.3 348 15.1 101360 72
2008-05-23 07:45:29 51°24.459 2°50.827 5.1 347 15.1 101360 72
2008-05-23 07:45:34 51°24.476 2°50.823 5.3 347 15 101350 72
2008-05-23 07:45:39 51°24.493 2°50.819 5.4 348 15 101350 72
2008-05-23 07:45:44 51°24.51 2°50.815 5.8 345 15 101360 72
2008-05-23 07:45:49 51°24.527 2°50.811 5.4 345 15 101360 72
2008-05-23 07:45:54 51°24.544 2°50.807 5.2 346 15.1 101350 72
2008-05-23 07:45:59 51°24.561 2°50.803 5.3 346 15.1 101350 72
2008-05-23 07:46:04 51°24.577 2°50.799 5.3 345 15 101350 71
2008-05-23 07:46:09 51°24.594 2°50.795 5.7 345 15 101350 71
2008-05-23 07:46:14 51°24.611 2°50.79 5.3 346 15 101360 72
2008-05-23 07:46:19 51°24.627 2°50.785 5.7 345 15 101360 72
2008-05-23 07:46:24 51°24.644 2°50.779 5.1 344 15.1 101360 72
2008-05-23 07:46:29 51°24.661 2°50.775 5.9 346 15.1 101360 72
2008-05-23 07:46:34 51°24.677 2°50.77 5.9 345 15.1 101360 72
2008-05-23 07:46:39 51°24.694 2°50.766 5.1 346 15.1 101360 72
2008-05-23 07:46:44 51°24.711 2°50.761 5.6 347 15.1 101350 71
2008-05-23 07:46:49 51°24.727 2°50.757 5.7 348 15.1 101350 71
2008-05-23 07:46:54 51°24.744 2°50.754 6.2 345 15.1 101360 71
2008-05-23 07:46:59 51°24.761 2°50.75 5.3 346 15.1 101360 71
2008-05-23 07:47:04 51°24.777 2°50.747 5.4 345 15 101350 71
2008-05-23 07:47:09 51°24.794 2°50.744 5.8 346 15 101350 71
2008-05-23 07:47:14 51°24.81 2°50.741 6.1 345 15.1 101350 71
2008-05-23 07:47:19 51°24.827 2°50.738 5.1 347 15.1 101350 71
2008-05-23 07:47:24 51°24.844 2°50.735 5.3 346 15 101360 71
2008-05-23 07:47:29 51°24.86 2°50.731 5.2 345 15 101360 71
2008-05-23 07:47:34 51°24.877 2°50.727 5.1 345 15.1 101350 71
2008-05-23 07:47:39 51°24.894 2°50.722 5.6 347 15.1 101350 71
2008-05-23 07:47:44 51°24.91 2°50.718 5.2 346 15.1 101350 71
2008-05-23 07:47:49 51°24.927 2°50.713 5.7 346 15.1 101350 71
2008-05-23 07:47:54 51°24.943 2°50.708 5.6 344 15.1 101360 71
2008-05-23 07:47:59 51°24.96 2°50.703 5.7 346 15.1 101360 71
2008-05-23 07:48:04 51°24.976 2°50.698 4.8 346 15.1 101360 71
2008-05-23 07:48:09 51°24.993 2°50.693 5.1 346 15.1 101360 71
2008-05-23 07:48:14 51°25.009 2°50.688 5.5 346 15.1 101360 71
2008-05-23 07:48:19 51°25.026 2°50.684 5.1 346 15.1 101360 71
2008-05-23 07:48:24 51°25.042 2°50.679 5.6 346 15.1 101360 71
2008-05-23 07:48:29 51°25.059 2°50.674 5.2 344 15.1 101360 71
2008-05-23 07:48:34 51°25.075 2°50.67 5 344 15.1 101360 70
2008-05-23 07:48:39 51°25.092 2°50.665 5 348 15.1 101360 70
2008-05-23 07:48:44 51°25.109 2°50.661 5.8 346 15.1 101350 71
2008-05-23 07:48:49 51°25.125 2°50.656 5.8 345 15.1 101350 71
2008-05-23 07:48:54 51°25.142 2°50.651 5.6 345 15.1 101360 71
2008-05-23 07:48:59 51°25.158 2°50.647 5.3 345 15.1 101360 71
2008-05-23 07:49:04 51°25.175 2°50.642 5.4 345 15.1 101360 71
2008-05-23 07:49:09 51°25.191 2°50.638 6.1 344 15.1 101360 71
2008-05-23 07:49:14 51°25.208 2°50.633 5.9 344 15.1 101360 71
2008-05-23 07:49:19 51°25.224 2°50.629 6 345 15.1 101360 71
2008-05-23 07:49:24 51°25.241 2°50.625 5.8 344 15.2 101350 72
2008-05-23 07:49:29 51°25.258 2°50.621 5.5 344 15.2 101350 72
2008-05-23 07:49:34 51°25.274 2°50.617 5.3 345 15.2 101360 72
2008-05-23 07:49:39 51°25.291 2°50.612 5.2 346 15.2 101360 72
2008-05-23 07:49:44 51°25.308 2°50.608 6.2 345 15.2 101350 72
2008-05-23 07:49:49 51°25.324 2°50.604 5.9 345 15.2 101350 72
2008-05-23 07:49:54 51°25.341 2°50.6 6 345 15.2 101360 72
2008-05-23 07:49:59 51°25.357 2°50.596 5.4 346 15.2 101360 72
2008-05-23 07:50:04 51°25.374 2°50.592 5.7 345 15.2 101360 72
2008-05-23 07:50:09 51°25.391 2°50.588 5.8 345 15.2 101360 72
2008-05-23 07:50:14 51°25.407 2°50.583 5.7 345 15.1 101350 72
2008-05-23 07:50:19 51°25.424 2°50.579 5.4 345 15.1 101350 72
2008-05-23 07:50:24 51°25.441 2°50.575 5.3 345 15.1 101350 72
2008-05-23 07:50:29 51°25.457 2°50.571 6 346 15.1 101350 72
2008-05-23 07:50:34 51°25.474 2°50.568 6 344 15.1 101360 72
2008-05-23 07:50:39 51°25.491 2°50.564 5.3 346 15.1 101360 72
2008-05-23 07:50:44 51°25.508 2°50.562 5.7 346 15.1 101360 72
2008-05-23 07:50:49 51°25.524 2°50.559 5.5 345 15.1 101360 72
2008-05-23 07:50:54 51°25.541 2°50.556 5.4 345 15.1 101360 72
2008-05-23 07:50:59 51°25.558 2°50.554 5.9 344 15.1 101360 72
2008-05-23 07:51:04 51°25.575 2°50.552 5.7 345 15.1 101360 72
2008-05-23 07:51:09 51°25.591 2°50.55 6.4 344 15.1 101360 72
2008-05-23 07:51:14 51°25.608 2°50.547 6.1 345 15.1 101360 72
2008-05-23 07:51:19 51°25.625 2°50.545 5.8 345 15.1 101360 72
2008-05-23 07:51:24 51°25.641 2°50.541 6.2 345 15.1 101360 72
2008-05-23 07:51:29 51°25.658 2°50.539 6.3 346 15.1 101360 72
2008-05-23 07:51:34 51°25.675 2°50.536 6 346 15.1 101360 72
2008-05-23 07:51:39 51°25.692 2°50.534 6.1 345 15.1 101360 72
2008-05-23 07:51:44 51°25.709 2°50.531 5.4 346 15.1 101350 72
2008-05-23 07:51:49 51°25.726 2°50.529 5.7 346 15.1 101350 72
2008-05-23 07:51:54 51°25.743 2°50.526 5.8 345 15.1 101350 72
2008-05-23 07:51:59 51°25.759 2°50.524 6 345 15.1 101350 72
2008-05-23 07:52:04 51°25.776 2°50.521 5.7 344 15.1 101360 72
2008-05-23 07:52:09 51°25.793 2°50.519 6.4 345 15.1 101360 72
2008-05-23 07:52:14 51°25.81 2°50.516 6 345 15.1 101350 72
2008-05-23 07:52:19 51°25.827 2°50.514 5.5 347 15.1 101350 72
2008-05-23 07:52:24 51°25.844 2°50.511 6.1 347 15.1 101360 73
2008-05-23 07:52:29 51°25.861 2°50.509 6 346 15.1 101360 73
2008-05-23 07:52:34 51°25.878 2°50.507 5.6 347 15.1 101360 73
2008-05-23 07:52:39 51°25.895 2°50.504 5.5 345 15.1 101360 73
2008-05-23 07:52:44 51°25.912 2°50.502 6.2 345 15.1 101360 73
2008-05-23 07:52:49 51°25.929 2°50.499 5.7 346 15.1 101360 73
2008-05-23 07:52:54 51°25.946 2°50.496 6.1 345 15.1 101360 72
2008-05-23 07:52:59 51°25.963 2°50.494 5.4 347 15.1 101360 72
2008-05-23 07:53:04 51°25.98 2°50.491 5.3 279 15.1 101360 72
2008-05-23 07:53:09 51°25.997 2°50.488 5.4 348 15.1 101360 72
2008-05-23 07:53:13 51°26.01 2°50.486 5.9 347 15.1 101350 72
2008-05-23 07:53:19 51°26.03 2°50.481 5.2 347 15.1 101350 72
2008-05-23 07:53:24 51°26.047 2°50.478 5.4 347 15.1 101360 73
2008-05-23 07:53:29 51°26.064 2°50.473 5.2 347 15.1 101360 73
2008-05-23 07:53:34 51°26.081 2°50.469 4.9 277 15.1 101360 72
2008-05-23 07:53:39 51°26.098 2°50.465 5 347 15.1 101360 72
2008-05-23 07:53:44 51°26.115 2°50.461 5.6 279 15.1 101360 72
2008-05-23 07:53:49 51°26.131 2°50.457 5.5 347 15.1 101360 72
2008-05-23 07:53:54 51°26.148 2°50.453 5.2 281 15.1 101360 72
2008-05-23 07:53:59 51°26.165 2°50.45 5.2 347 15.1 101360 72
2008-05-23 07:54:04 51°26.181 2°50.446 5.7 281 15.1 101360 72
2008-05-23 07:54:09 51°26.198 2°50.444 5.3 347 15.1 101360 72
2008-05-23 07:54:14 51°26.215 2°50.441 5.4 279 15.1 101360 72
2008-05-23 07:54:19 51°26.232 2°50.439 5.9 346 15.1 101360 72
2008-05-23 07:54:24 51°26.249 2°50.436 5.6 348 15.1 101360 72
2008-05-23 07:54:29 51°26.265 2°50.434 5.3 344 15.1 101360 72
2008-05-23 07:54:34 51°26.282 2°50.431 5.8 280 15 101360 72
2008-05-23 07:54:39 51°26.299 2°50.428 5.2 344 15 101360 72
2008-05-23 07:54:44 51°26.316 2°50.426 5.8 279 15.1 101360 72
2008-05-23 07:54:49 51°26.332 2°50.423 5 345 15.1 101360 72
2008-05-23 07:54:54 51°26.349 2°50.42 5.3 279 15.1 101360 72
2008-05-23 07:54:59 51°26.366 2°50.418 5.7 345 15.1 101360 72
2008-05-23 07:55:04 51°26.383 2°50.415 5.7 278 15.1 101360 73
2008-05-23 07:55:09 51°26.4 2°50.413 5.5 344 15.1 101360 73
2008-05-23 07:55:14 51°26.416 2°50.41 4.9 345 15.1 101360 73
2008-05-23 07:55:19 51°26.433 2°50.407 4.9 345 15.1 101360 73
2008-05-23 07:55:24 51°26.45 2°50.405 5.2 346 15.1 101360 73
2008-05-23 07:55:29 51°26.467 2°50.402 5 345 15.1 101360 73
2008-05-23 07:55:34 51°26.483 2°50.399 5.3 346 15.1 101360 73
2008-05-23 07:55:39 51°26.5 2°50.397 5.6 346 15.1 101360 73
2008-05-23 07:55:44 51°26.517 2°50.394 5.1 279 15.1 101360 73
2008-05-23 07:55:49 51°26.534 2°50.391 5 346 15.1 101360 73
2008-05-23 07:55:54 51°26.551 2°50.388 5.5 285 15.1 101360 73
2008-05-23 07:55:59 51°26.568 2°50.384 5.6 344 15.1 101360 73
2008-05-23 07:56:04 51°26.584 2°50.381 5.1 278 15.1 101360 73
2008-05-23 07:56:09 51°26.601 2°50.379 5.6 345 15.1 101360 73
2008-05-23 07:56:14 51°26.618 2°50.375 4.9 278 15.1 101360 73
2008-05-23 07:56:19 51°26.635 2°50.373 5.1 343 15.1 101360 73
2008-05-23 07:56:24 51°26.652 2°50.37 5 345 15.1 101360 73
2008-05-23 07:56:29 51°26.668 2°50.367 4.8 344 15.1 101360 73
2008-05-23 07:56:34 51°26.685 2°50.364 5 286 15.1 101360 73
2008-05-23 07:56:39 51°26.702 2°50.361 5.7 344 15.1 101360 73
2008-05-23 07:56:44 51°26.719 2°50.358 5.7 279 15.1 101360 73
2008-05-23 07:56:49 51°26.736 2°50.355 5.2 345 15.1 101360 73
2008-05-23 07:56:54 51°26.753 2°50.352 5.6 285 15.1 101360 73
2008-05-23 07:56:59 51°26.769 2°50.349 5.1 345 15.1 101360 73
2008-05-23 07:57:04 51°26.786 2°50.345 4.9 279 15.1 101360 73
2008-05-23 07:57:09 51°26.803 2°50.342 5 345 15.1 101360 73
2008-05-23 07:57:13 51°26.816 2°50.339 5.5 345 15.1 101360 73
2008-05-23 07:57:19 51°26.836 2°50.335 4.9 345 15.1 101360 73
2008-05-23 07:57:24 51°26.853 2°50.331 5.4 344 15.1 101360 73
2008-05-23 07:57:29 51°26.87 2°50.327 5.5 344 15.1 101360 73
2008-05-23 07:57:34 51°26.887 2°50.324 5.2 284 15.1 101360 73
2008-05-23 07:57:39 51°26.903 2°50.319 4.7 344 15.1 101360 73
2008-05-23 07:57:44 51°26.92 2°50.315 4.7 285 15.1 101360 73
2008-05-23 07:57:49 51°26.937 2°50.31 4.6 346 15.1 101360 73
2008-05-23 07:57:54 51°26.953 2°50.306 5 282 15.1 101370 73
2008-05-23 07:57:59 51°26.97 2°50.301 5.2 345 15.1 101370 73
2008-05-23 07:58:04 51°26.987 2°50.297 4.7 278 15.1 101370 73
2008-05-23 07:58:09 51°27.003 2°50.293 4.7 346 15.1 101370 73
2008-05-23 07:58:14 51°27.02 2°50.289 4.6 281 15.1 101360 73
2008-05-23 07:58:19 51°27.036 2°50.285 4.6 345 15.1 101360 73
2008-05-23 07:58:24 51°27.053 2°50.28 5 346 15.1 101360 73
2008-05-23 07:58:29 51°27.069 2°50.276 4.6 344 15.1 101360 73
2008-05-23 07:58:34 51°27.086 2°50.272 5.1 278 15.1 101360 73
2008-05-23 07:58:39 51°27.103 2°50.269 4.9 345 15.1 101360 73
2008-05-23 07:58:44 51°27.119 2°50.264 4.9 284 15.1 101370 73
2008-05-23 07:58:49 51°27.136 2°50.261 4.5 346 15.1 101370 73
2008-05-23 07:58:54 51°27.153 2°50.256 4.5 284 15.1 101360 73
2008-05-23 07:58:59 51°27.169 2°50.252 5 345 15.1 101360 73
2008-05-23 07:59:04 51°27.186 2°50.248 4.9 279 15.1 101370 72
2008-05-23 07:59:09 51°27.202 2°50.244 4.7 346 15.1 101370 72
2008-05-23 07:59:14 51°27.219 2°50.24 5.3 278 15.1 101370 72
2008-05-23 07:59:19 51°27.235 2°50.237 5 345 15.1 101370 72
2008-05-23 07:59:24 51°27.252 2°50.233 4.4 346 15.1 101370 72
2008-05-23 07:59:29 51°27.269 2°50.229 4.5 346 15.1 101370 72
2008-05-23 07:59:33 51°27.282 2°50.226 4.4 348 15.1 101360 72
2008-05-23 07:59:39 51°27.302 2°50.222 4.7 347 15.1 101360 72
2008-05-23 07:59:44 51°27.318 2°50.218 4.4 281 15.1 101360 71
2008-05-23 07:59:49 51°27.335 2°50.215 5 345 15.1 101360 71
2008-05-23 07:59:54 51°27.352 2°50.211 4.4 282 15.1 101360 71
2008-05-23 07:59:59 51°27.368 2°50.208 5 346 15.1 101360 71
2008-05-23 08:00:04 51°27.385 2°50.204 4.6 280 15.1 101370 71
2008-05-23 08:00:09 51°27.402 2°50.201 4.7 345 15.1 101370 71
2008-05-23 08:00:14 51°27.419 2°50.197 5 278 15.1 101370 71
2008-05-23 08:00:19 51°27.436 2°50.194 5 344 15.1 101370 71
2008-05-23 08:00:24 51°27.453 2°50.19 5.4 346 15.1 101370 71
2008-05-23 08:00:29 51°27.469 2°50.187 4.6 346 15.1 101370 71
2008-05-23 08:00:34 51°27.486 2°50.184 5.2 278 15.1 101370 71
2008-05-23 08:00:39 51°27.503 2°50.18 4.5 345 15.1 101370 71
2008-05-23 08:00:44 51°27.52 2°50.177 5.2 284 15.1 101370 71
2008-05-23 08:00:49 51°27.537 2°50.173 4.5 345 15.1 101370 71
2008-05-23 08:00:54 51°27.554 2°50.169 4.3 282 15.1 101370 71
2008-05-23 08:00:59 51°27.57 2°50.166 4.9 347 15.1 101370 71
2008-05-23 08:01:04 51°27.587 2°50.162 5 280 15.1 101370 71
2008-05-23 08:01:09 51°27.604 2°50.159 4.7 346 15.1 101370 71
2008-05-23 08:01:14 51°27.621 2°50.156 4.9 347 15.2 101360 71
2008-05-23 08:01:19 51°27.638 2°50.152 4.9 347 15.2 101360 71
2008-05-23 08:01:24 51°27.655 2°50.149 5 346 15.2 101360 71
2008-05-23 08:01:29 51°27.672 2°50.146 4.4 347 15.2 101360 71
2008-05-23 08:01:34 51°27.689 2°50.142 4.8 282 15.2 101360 71
2008-05-23 08:01:39 51°27.705 2°50.139 4.8 347 15.2 101360 71
2008-05-23 08:01:44 51°27.722 2°50.136 4.3 347 15.1 101370 70
2008-05-23 08:01:49 51°27.739 2°50.133 4.3 346 15.1 101370 70
2008-05-23 08:01:53 51°27.753 2°50.13 4.5 347 15.1 101370 70
2008-05-23 08:01:59 51°27.773 2°50.126 4.4 347 15.1 101370 70
2008-05-23 08:02:04 51°27.79 2°50.123 4.3 346 15.1 101370 70
2008-05-23 08:02:09 51°27.807 2°50.12 4.4 346 15.1 101370 70
2008-05-23 08:02:14 51°27.824 2°50.117 5.2 280 15.1 101370 70
2008-05-23 08:02:19 51°27.841 2°50.114 4.9 345 15.1 101370 70
2008-05-23 08:02:24 51°27.858 2°50.111 5.3 346 15.1 101360 70
2008-05-23 08:02:29 51°27.875 2°50.108 4.5 346 15.1 101360 70
2008-05-23 08:02:34 51°27.892 2°50.106 4.8 283 15.2 101370 70
2008-05-23 08:02:39 51°27.909 2°50.103 4.7 344 15.2 101370 70
2008-05-23 08:02:44 51°27.926 2°50.1 5.1 279 15.2 101370 70
2008-05-23 08:02:49 51°27.943 2°50.097 4.7 343 15.2 101370 70
2008-05-23 08:02:54 51°27.96 2°50.094 5 279 15.2 101370 70
2008-05-23 08:02:59 51°27.977 2°50.092 4.5 345 15.2 101370 70
2008-05-23 08:03:04 51°27.994 2°50.089 4.5 282 15.2 101370 71
2008-05-23 08:03:09 51°28.011 2°50.086 5 344 15.2 101370 71
2008-05-23 08:03:14 51°28.028 2°50.083 4.6 281 15.2 101370 71
2008-05-23 08:03:19 51°28.045 2°50.08 5.1 346 15.2 101370 71
2008-05-23 08:03:24 51°28.061 2°50.076 4.5 344 15.2 101370 71
2008-05-23 08:03:29 51°28.078 2°50.073 4.6 344 15.2 101370 71
2008-05-23 08:03:34 51°28.095 2°50.07 4.6 284 15.2 101370 71
2008-05-23 08:03:39 51°28.111 2°50.067 5.2 343 15.2 101370 71
2008-05-23 08:03:44 51°28.128 2°50.064 5 279 15.2 101370 71
2008-05-23 08:03:49 51°28.144 2°50.061 4.3 344 15.2 101370 71
2008-05-23 08:03:54 51°28.161 2°50.058 4.5 282 15.2 101370 71
2008-05-23 08:03:59 51°28.178 2°50.056 5 344 15.2 101370 71
2008-05-23 08:04:04 51°28.195 2°50.054 5.1 279 15.2 101370 71
2008-05-23 08:04:09 51°28.211 2°50.052 4.5 344 15.2 101370 71
2008-05-23 08:04:13 51°28.225 2°50.051 5.1 284 15.2 101370 71
2008-05-23 08:04:19 51°28.245 2°50.048 4.8 344 15.2 101370 71
2008-05-23 08:04:24 51°28.261 2°50.047 4.9 344 15.2 101370 71
2008-05-23 08:04:29 51°28.278 2°50.045 4.4 343 15.2 101370 71
2008-05-23 08:04:34 51°28.295 2°50.043 5.1 280 15.2 101370 71
2008-05-23 08:04:39 51°28.312 2°50.04 5 344 15.2 101370 71
2008-05-23 08:04:44 51°28.328 2°50.038 4.5 286 15.2 101370 72
2008-05-23 08:04:49 51°28.345 2°50.035 4.5 345 15.2 101370 72
2008-05-23 08:04:54 51°28.362 2°50.032 4.5 286 15.2 101370 72
2008-05-23 08:04:59 51°28.378 2°50.029 4.4 343 15.2 101370 72
2008-05-23 08:05:04 51°28.395 2°50.025 4.3 286 15.2 101370 72
2008-05-23 08:05:09 51°28.412 2°50.021 4.2 343 15.2 101370 72
2008-05-23 08:05:14 51°28.428 2°50.016 5.1 284 15.2 101370 72
2008-05-23 08:05:19 51°28.445 2°50.012 4.8 344 15.2 101370 72
2008-05-23 08:05:24 51°28.461 2°50.007 4.2 342 15.2 101360 72
2008-05-23 08:05:29 51°28.478 2°50.003 4.6 343 15.2 101360 72
2008-05-23 08:05:34 51°28.494 2°49.999 4.3 279 15.2 101370 72
2008-05-23 08:05:39 51°28.511 2°49.995 4.1 343 15.2 101370 72
2008-05-23 08:05:44 51°28.527 2°49.991 5 283 15.2 101360 72